Stations météo

Publicité
Troyes, France (7168): Température de l'air & dewpoint: 18.01.2021 07:00:00 - 24.01.2021 07:00:00 (CET)Troyes, France (7168): Température de l'air 5cm: 18.01.2021 07:00:00 - 24.01.2021 07:00:00 (CET)Troyes, France (7168): Température de l'air -20cm & Température de l'air -100cm: 18.01.2021 07:00:00 - 24.01.2021 07:00:00 (CET)Troyes, France (7168): Vitesse du vent & gusts: 18.01.2021 07:00:00 - 24.01.2021 07:00:00 (CET)Troyes, France (7168): Direction du vent: 18.01.2021 07:00:00 - 24.01.2021 07:00:00 (CET)Troyes, France (7168): reduced air pressure: 18.01.2021 07:00:00 - 24.01.2021 07:00:00 (CET)Troyes, France (7168): visibility: 18.01.2021 07:00:00 - 24.01.2021 07:00:00 (CET)Troyes, France (7168): Ensoleillement: 18.01.2021 07:00:00 - 24.01.2021 07:00:00 (CET)Troyes, France (7168): Quantités de précipitations: 18.01.2021 07:00:00 - 24.01.2021 07:00:00 (CET)
Date & Time tt [°C] td [°C] tt 5cm [°C] tt -20cm [°C] tt -100cm [°C] ff [km/h] ff [knt] fx [km/h] fx [knt] dd ppp [hPa] vv [km] sd [min] rr [mm]
24.01.2021 07:00:00 -0,1 -2,0 -2,9 5,6 8,1 0 0 13 7 N 1003,8 20 0 0,0
24.01.2021 06:00:00 0,5 -2,1 -1,5 5,7 8,1 11 6 24 13 WSW 1003,2 20 0 0,0
24.01.2021 05:00:00 0,5 -1,6 -1,0 5,8 8,1 18 10 24 13 W 1002,8 20 0 0,0
24.01.2021 04:00:00 0,5 -1,0 -0,6 5,9 8,1 18 10 25 13 WSW 1002,3 20 0 0,0
24.01.2021 03:00:00 1,0 -0,6 -0,2 5,9 8,1 18 10 28 15 WSW 1001,8 20 0 0,0
24.01.2021 02:00:00 1,4 -0,4 0,1 6,0 8,1 20 11 32 17 WSW 1000,9 20 0 0,0
24.01.2021 01:00:00 1,7 -0,2 -0,8 6,1 8,1 22 12 29 16 WSW 1000,1 20 0 0,0
24.01.2021 00:00:00 1,0 -0,6 -0,5 6,1 8,1 18 10 25 14 W 999,7 20 0 0,0
23.01.2021 23:00:00 1,7 -0,4 0,2 6,1 8,1 18 10 42 23 W 999,2 20 0 0,0
23.01.2021 22:00:00 2,7 0,9 1,5 6,2 8,1 25 14 46 25 W 998,4 20 0 0,0
23.01.2021 21:00:00 2,9 1,1 2,2 6,2 8,1 35 19 46 25 WNW 997,0 20 0 0,0
23.01.2021 20:00:00 2,9 1,7 2,0 6,2 8,1 18 10 48 26 W 995,5 20 0 0,2
23.01.2021 19:00:00 4,4 1,8 2,8 6,2 8,1 21 11 33 18 W 994,1 20 0 0,0
23.01.2021 18:00:00 4,6 1,8 2,7 6,2 8,1 19 10 26 14 WSW 993,5 20 0 0,0
23.01.2021 17:00:00 5,1 2,6 3,7 6,1 8,1 14 8 29 16 WSW 992,9 20 8 0,0
23.01.2021 16:00:00 5,8 3,1 4,7 6,1 8,1 16 9 27 15 SW 992,4 20 23 0,0
23.01.2021 15:00:00 5,0 2,4 4,7 6,1 8,1 24 13 40 22 SSW 992,1 20 0 0,0
23.01.2021 14:00:00 5,1 3,4 4,5 6,1 8,1 17 9 32 18 S 992,5 20 8 0,0
23.01.2021 13:00:00 4,8 3,0 3,4 6,1 8,1 19 11 38 21 SSE 993,5 20 13 0,2
23.01.2021 12:00:00 3,9 1,9 3,5 6,1 8,1 27 15 44 24 S 994,8 18 0 1,4
23.01.2021 11:00:00 4,8 2,7 3,9 6,2 8,1 21 11 32 17 SSE 995,6 14 0 0,8
23.01.2021 10:00:00 4,6 2,5 3,8 6,2 8,0 14 8 27 14 SSE 996,6 20 0 0,0
23.01.2021 09:00:00 4,6 2,5 3,8 6,2 8,0 18 10 31 17 S 997,7 20 0 0,0
23.01.2021 08:00:00 4,5 2,5 3,6 6,2 8,1 16 9 24 13 SSE 999,0 20 0 0,0
23.01.2021 07:00:00 4,3 2,6 3,6 6,2 8,0 18 10 23 12 S 999,5 20 0 0,0
23.01.2021 06:00:00 4,3 2,5 3,7 6,3 8,0 14 8 21 11 S 1000,2 20 0 0,0
23.01.2021 05:00:00 4,3 2,8 3,8 6,4 8,1 12 6 18 10 S 1000,9 20 0 0,0
23.01.2021 04:00:00 4,5 2,8 2,0 6,4 8,0 14 7 25 13 SSW 1001,1 20 0 0,0
23.01.2021 03:00:00 2,8 1,8 1,6 6,5 8,0 13 7 22 12 S 1000,9 20 0 0,0
23.01.2021 02:00:00 2,9 1,9 1,8 6,5 8,1 15 8 21 11 S 1001,0 20 0 0,0
23.01.2021 01:00:00 3,6 2,3 3,0 6,6 8,0 14 7 19 10 SSW 1001,0 20 0 0,0
23.01.2021 00:00:00 4,1 2,4 3,1 6,6 8,0 17 9 36 19 SSW 1001,3 20 0 0,0
22.01.2021 23:00:00 3,9 2,3 2,7 6,7 8,0 20 11 30 16 SW 1000,8 20 0 0,0
22.01.2021 22:00:00 4,1 2,4 3,0 6,7 8,0 21 12 28 15 WSW 1000,5 20 0 0,0
22.01.2021 21:00:00 4,4 2,7 3,3 6,8 8,0 14 8 21 11 SW 1000,5 20 0 0,0
22.01.2021 20:00:00 4,6 2,8 3,0 6,8 8,0 13 7 24 13 WSW 1000,5 20 0 0,0
22.01.2021 19:00:00 3,9 2,7 2,9 6,8 8,0 12 7 18 10 W 999,5 20 0 0,0
22.01.2021 18:00:00 4,0 2,7 3,2 6,8 8,0 7 4 17 9 WNW 998,5 20 0 0,0
22.01.2021 17:00:00 4,4 3,1 4,1 6,8 8,0 12 7 19 10 WNW 997,4 20 0 0,0
22.01.2021 16:00:00 4,4 2,7 4,2 6,8 8,0 14 8 18 10 NNW 997,0 20 0 0,0
22.01.2021 15:00:00 4,5 2,8 4,4 6,8 8,0 10 5 14 8 N 996,5 20 0 0,2
22.01.2021 14:00:00 4,5 2,7 4,3 6,8 8,0 9 5 15 8 N 996,4 20 0 0,4
22.01.2021 13:00:00 4,4 2,6 4,4 6,9 8,0 10 5 20 11 NE 996,2 20 0 0,0
22.01.2021 12:00:00 3,7 2,5 3,4 6,9 8,0 10 5 16 9 ENE 996,0 20 0 0,2
22.01.2021 11:00:00 2,9 2,0 2,5 7,0 8,0 6 4 11 6 ENE 996,1 17 0 0,4
22.01.2021 10:00:00 2,3 1,4 1,6 7,0 8,0 4 2 16 8 NE 995,8 20 0 1,4
22.01.2021 09:00:00 2,2 1,0 1,8 7,0 8,0 14 7 31 17 N 995,4 9 0 2,4
22.01.2021 08:00:00 4,0 3,0 3,7 7,0 8,0 22 12 31 17 N 993,6 4,9 0 1,6
22.01.2021 07:00:00 5,0 4,0 4,7 6,9 8,0 16 9 42 23 N 992,6 3,9 0 5,3
22.01.2021 06:00:00 9,5 7,3 8,3 7,0 8,0 33 18 53 29 SSW 991,1 7 0 1,4
22.01.2021 05:00:00 9,2 7,5 8,4 6,9 8,0 31 17 48 26 SSW 991,6 6 0 0,0
22.01.2021 04:00:00 9,7 6,6 8,9 6,9 8,0 28 15 52 28 SSW 992,1 20 0 0,0
22.01.2021 03:00:00 9,2 6,8 8,8 6,9 8,0 31 17 53 29 SSW 992,6 19 0 0,0
22.01.2021 02:00:00 9,8 6,1 9,3 6,8 8,0 39 21 62 34 SSW 992,6 20 0 0,0
22.01.2021 01:00:00 10,1 6,6 8,8 6,8 8,0 39 21 66 36 SSW 992,5 20 0 0,0
22.01.2021 00:00:00 10,0 6,9 8,5 6,8 8,0 43 23 70 38 SSW 992,3 20 0 0,0
21.01.2021 23:00:00 10,2 6,3 8,2 6,8 8,0 42 23 68 37 SSW 992,2 20 0 0,2
21.01.2021 22:00:00 11,0 6,1 8,4 6,7 8,0 43 23 82 44 SSW 992,1 20 0 0,2
21.01.2021 21:00:00 10,8 6,5 8,6 6,7 8,0 40 21 71 38 SSW 992,6 20 0 0,2
21.01.2021 20:00:00 10,1 7,3 8,7 6,6 8,0 37 20 77 41 SSW 993,3 13 0 0,2
21.01.2021 19:00:00 10,6 7,7 9,0 6,6 8,0 49 26 71 38 S 993,4 20 0 0,2
21.01.2021 18:00:00 9,9 8,3 9,1 6,5 8,0 31 17 68 37 S 994,1 6 0 2,0
21.01.2021 17:00:00 10,3 8,2 8,7 6,4 8,0 35 19 52 28 S 995,3 7 0 1,6
21.01.2021 16:00:00 9,5 7,9 8,5 6,4 8,0 17 9 27 15 S 996,5 9 0 1,2
21.01.2021 15:00:00 9,4 7,2 8,4 6,3 8,0 18 10 46 25 S 997,9 20 0 0,0
21.01.2021 14:00:00 9,9 6,4 8,9 6,3 8,0 30 16 51 28 SSW 998,8 18 0 0,0
21.01.2021 13:00:00 10,2 6,2 9,0 6,2 8,0 27 14 40 21 SSW 999,8 20 0 0,0
21.01.2021 12:00:00 9,8 4,6 9,2 6,2 8,0 26 14 36 20 SSW 1000,7 20 12 0,0
21.01.2021 11:00:00 8,9 4,3 7,8 6,2 8,0 28 15 47 25 SW 1000,9 20 24 0,0
21.01.2021 10:00:00 8,2 4,0 5,1 6,2 8,0 23 12 35 19 SW 1000,5 20 26 0,0
21.01.2021 09:00:00 7,1 3,9 5,2 6,1 8,0 22 12 35 19 SW 1000,1 20 0 0,0
21.01.2021 08:00:00 6,5 4,0 5,2 6,1 8,0 22 12 58 31 W 999,2 20 0 2,6
21.01.2021 07:00:00 9,7 7,6 8,3 6,0 8,0 28 15 48 26 S 996,9 6 0 0,8
21.01.2021 06:00:00 9,7 6,8 8,3 6,0 8,0 38 20 61 33 S 996,0 6 0 0,2
21.01.2021 05:00:00 10,5 6,3 8,9 6,0 8,0 42 23 67 36 S 996,0 20 0 0,0
21.01.2021 04:00:00 10,6 6,0 9,2 5,9 8,0 40 22 64 34 S 995,8 18 0 0,0
21.01.2021 03:00:00 11,8 5,0 9,9 5,8 8,0 47 26 67 36 S 995,4 20 0 0,0
21.01.2021 02:00:00 12,1 4,6 9,0 5,8 8,0 44 24 74 40 S 995,4 20 0 0,0
21.01.2021 01:00:00 12,2 4,4 9,0 5,7 8,0 45 25 66 35 S 995,7 20 0 0,0
21.01.2021 00:00:00 12,0 4,2 10,6 5,7 8,0 36 19 53 28 S 996,1 20 0 0,0
20.01.2021 23:00:00 11,8 4,0 10,6 5,7 8,0 32 17 52 28 S 996,3 20 0 0,0
20.01.2021 22:00:00 12,0 4,2 11,1 5,6 8,0 37 20 53 29 S 996,7 20 0 0,0
20.01.2021 21:00:00 12,1 4,3 10,5 5,5 8,0 37 20 55 30 S 997,4 20 0 0,0
20.01.2021 20:00:00 11,6 4,3 10,4 5,5 8,0 25 13 43 23 S 998,1 20 0 0,0
20.01.2021 19:00:00 11,7 4,4 9,4 5,4 8,0 29 16 45 25 S 998,3 20 0 0,0
20.01.2021 18:00:00 10,8 4,7 8,9 5,3 8,0 16 8 30 16 SSE 998,9 20 0 0,0
20.01.2021 17:00:00 11,7 4,9 10,4 5,1 8,0 21 11 34 18 SSE 999,3 20 5 0,0
20.01.2021 16:00:00 13,1 5,0 12,4 5,0 8,0 27 14 37 20 S 999,6 20 47 0,0
20.01.2021 15:00:00 13,8 4,9 13,7 4,9 8,0 22 12 39 21 S 1000,0 20 53 0,0
20.01.2021 14:00:00 13,4 5,0 11,7 4,8 8,0 18 10 31 17 SSE 1000,9 20 39 0,0
20.01.2021 13:00:00 11,4 3,7 11,7 4,8 8,0 23 13 37 20 SSE 1002,1 20 50 0,0
20.01.2021 12:00:00 10,4 4,1 9,9 4,7 8,0 23 12 32 17 S 1003,5 20 58 0,0
20.01.2021 11:00:00 8,5 2,5 6,4 4,7 8,0 24 13 31 17 S 1004,5 20 28 0,0
20.01.2021 10:00:00 6,5 0,6 4,7 4,8 8,0 18 10 25 13 S 1005,3 20 0 0,0
20.01.2021 09:00:00 5,4 -0,9 4,5 4,8 8,0 19 11 32 18 S 1005,9 20 0 0,0
20.01.2021 08:00:00 6,5 -1,7 5,4 4,8 8,0 25 14 37 20 S 1006,2 20 0 0,0
20.01.2021 07:00:00 6,3 -1,6 4,9 4,8 8,0 27 14 35 19 S 1006,8 20 0 0,0
20.01.2021 06:00:00 6,2 -1,7 4,5 4,8 8,0 24 13 33 18 S 1007,2 20 0 0,0
20.01.2021 05:00:00 6,5 -1,7 5,5 4,8 8,0 23 12 32 18 S 1008,0 20 0 0,0
20.01.2021 04:00:00 6,3 -1,6 5,2 4,8 8,0 23 12 29 16 S 1008,7 20 0 0,0
20.01.2021 03:00:00 6,2 -1,7 4,7 4,8 8,0 24 13 32 17 S 1009,4 20 0 0,0
20.01.2021 02:00:00 5,9 -1,5 3,4 4,9 8,0 23 13 29 16 S 1010,0 20 0 0,0
20.01.2021 01:00:00 5,0 -1,7 2,7 4,9 8,0 18 10 24 13 S 1010,9 20 0 0,0
20.01.2021 00:00:00 4,3 -1,7 3,0 4,9 8,0 18 10 29 16 SSE 1011,5 20 0 0,0
19.01.2021 23:00:00 5,5 -1,2 3,8 4,9 8,0 22 12 30 16 SSE 1011,9 20 0 0,0
19.01.2021 22:00:00 5,1 -0,7 3,1 5,0 8,0 23 13 28 15 S 1012,3 20 0 0,0
19.01.2021 21:00:00 4,7 -0,7 3,8 5,0 8,0 24 13 34 19 S 1012,7 20 0 0,0
19.01.2021 20:00:00 4,9 -1,3 3,0 5,0 8,0 28 15 36 19 S 1013,4 20 0 0,0
19.01.2021 19:00:00 4,5 -1,1 3,0 5,0 8,1 15 8 35 19 S 1014,2 20 0 0,0
19.01.2021 18:00:00 5,4 -0,4 4,2 4,9 8,1 26 14 33 18 S 1014,2 10 0 0,0
19.01.2021 17:00:00 6,5 0,6 5,1 4,8 8,1 14 8 26 14 S 1014,9 20 55 0,0
19.01.2021 16:00:00 8,1 1,2 8,4 4,7 8,0 15 8 31 17 S 1015,4 20 60 0,0
19.01.2021 15:00:00 8,4 1,3 8,9 4,7 8,0 23 12 45 24 S 1015,7 20 58 0,0
19.01.2021 14:00:00 7,6 1,2 5,1 4,7 8,1 26 14 44 24 SSW 1016,5 20 35 0,0
19.01.2021 13:00:00 5,7 2,0 4,9 4,6 8,1 11 6 36 19 S 1018,0 19 0 0,0
19.01.2021 12:00:00 5,6 1,1 5,2 4,6 8,1 24 13 48 26 SSW 1018,7 20 0 0,0
19.01.2021 11:00:00 5,0 0,7 4,0 4,7 8,1 26 14 39 21 SSW 1019,1 20 0 0,0
19.01.2021 10:00:00 3,8 0,5 3,1 4,7 8,1 19 10 29 16 S 1019,4 20 0 0,0
19.01.2021 09:00:00 3,3 0,0 2,4 4,7 8,1 22 12 40 21 S 1019,5 20 0 0,0
19.01.2021 08:00:00 2,8 0,0 2,0 4,7 8,1 12 7 22 12 SSE 1019,9 20 0 0,0
19.01.2021 07:00:00 2,6 0,0 1,2 4,8 8,1 14 8 22 12 S 1020,5 20 0 0,0
19.01.2021 06:00:00 2,0 0,1 0,9 4,8 8,1 15 8 27 14 S 1021,3 20 0 0,0
19.01.2021 05:00:00 2,1 0,0 0,3 4,8 8,1 17 9 21 11 S 1021,9 20 0 0,0
19.01.2021 04:00:00 2,5 0,2 1,5 4,8 8,1 17 9 25 14 S 1022,5 20 0 0,0
19.01.2021 03:00:00 3,0 0,7 2,5 4,9 8,1 16 9 23 12 S 1023,4 20 0 0,0
19.01.2021 02:00:00 3,0 0,9 2,5 4,9 8,1 19 10 23 12 S 1023,9 20 0 0,0
19.01.2021 01:00:00 2,8 0,8 2,4 4,9 8,1 13 7 20 11 S 1024,6 20 0 0,0
19.01.2021 00:00:00 2,9 0,9 1,7 5,0 8,1 14 8 19 10 S 1025,2 20 0 0,0
18.01.2021 23:00:00 2,0 0,2 -0,3 5,0 8,1 16 8 20 11 S 1025,7 20 0 0,0
18.01.2021 22:00:00 0,1 -1,2 -1,1 5,0 8,1 12 7 17 9 S 1026,3 20 0 0,0
18.01.2021 21:00:00 0,3 -1,5 -1,2 5,0 8,1 12 7 16 9 S 1026,6 20 0 0,0
18.01.2021 20:00:00 1,9 -0,4 -0,2 5,0 8,1 11 6 13 7 S 1026,9 20 0 0,0
18.01.2021 19:00:00 4,5 1,0 3,9 4,9 8,1 10 5 16 9 S 1026,8 20 0 0,0
18.01.2021 18:00:00 4,7 1,4 4,2 4,8 8,1 9 5 22 12 SSW 1026,9 20 0 0,0
18.01.2021 17:00:00 5,9 0,8 5,5 4,7 8,1 14 8 27 15 SW 1026,8 20 35 0,0
18.01.2021 16:00:00 6,7 0,6 6,9 4,6 8,1 13 7 26 14 WSW 1026,9 20 2 0,0
18.01.2021 15:00:00 7,0 1,3 7,6 4,5 8,1 15 8 27 15 WSW 1027,1 20 20 0,0
18.01.2021 14:00:00 7,8 2,0 9,2 4,5 8,1 17 9 29 16 WSW 1027,5 20 60 0,0
18.01.2021 13:00:00 7,2 2,3 8,3 4,4 8,1 19 11 29 16 W 1028,2 20 60 0,0
18.01.2021 12:00:00 6,3 2,4 6,2 4,3 8,1 22 12 29 16 WSW 1028,8 20 57 0,0
18.01.2021 11:00:00 4,9 2,4 4,3 4,4 8,2 7 4 15 8 SSE 1029,3 20 17 0,0
18.01.2021 10:00:00 3,9 1,8 2,4 4,4 8,2 10 5 17 9 S 1029,2 20 29 0,0
18.01.2021 09:00:00 3,7 0,4 2,9 4,4 8,2 8 4 22 12 ESE 1029,0 20 0 0,2
18.01.2021 08:00:00 3,6 0,6 2,3 4,4 8,2 14 7 21 11 SSW 1028,6 20 0 0,0
18.01.2021 07:00:00 3,1 0,8 1,7 4,3 8,2 12 6 16 9 S 1028,3 20 0 0,0

tt = Température de l'air
td = dewpoint
tt 5cm = Température de l'air 5cm
tt -20cm = Température de l'air -20cm
tt -100cm = Température de l'air -100cm
ff = Vitesse du vent
fx = gusts
dd = Direction du vent
ppp = reduced air pressure
vv = visibility
sd = Ensoleillement
rr = Quantités de précipitations

stations d'obs. à proximité